contact:dominique.lefevre@mio.osupytheas.fr, maurice.libes@osupytheas.fr, didier.mallarino@osupytheas.fr
Project:EMSO http://www.emso-fr.org/EMSO-France
Depth: 2436.0 m
Title:EMSO Ligure Ouest : Data MII capteur AQUADOPP
Date,Latitude,Longitude,X_East,Y_North,Z_Up,Amplitude_X,Amplitude_Y,Amplitude_Z,Batterie,SoundSpeed,Heading,Pitch,Roll,Pressure,TIS,Speed,Direction
, degrees North, degrees East, m.s-1, m.s-1,m.s-1, 1, 1, 1, Volt, m.s-1, degree, degree, degree, dbar, degree_C, m.s-1, degree
2020-06-25T00:04:03,42.805,6.029,-0.047,-0.024,-0.005,105.0,106.0,101.0,13.3,1505.3,326.7,-0.7,1.8,2470.519,13.31,0.052,243.0
2020-06-25T00:07:03,42.805,6.029,-0.037,-0.014,-0.015,106.0,106.0,101.0,13.4,1505.3,326.8,-0.7,1.8,2470.497,13.31,0.039,249.3
2020-06-25T00:10:03,42.805,6.029,-0.014,-0.015,0.011,104.0,107.0,102.0,13.4,1505.3,324.2,-0.7,1.8,2470.479,13.32,0.02,223.0
2020-06-25T00:13:03,42.805,6.029,-0.05,-0.042,-0.013,105.0,106.0,102.0,13.3,1505.3,325.3,-0.7,1.8,2470.509,13.32,0.065,230.0
2020-06-25T00:16:03,42.805,6.029,-0.008,-0.018,0.025,106.0,107.0,102.0,13.3,1505.3,324.9,-0.7,1.9,2470.466,13.32,0.019,204.0
2020-06-25T00:19:03,42.805,6.029,-0.046,-0.012,-0.004,104.0,106.0,102.0,13.3,1505.3,324.3,-0.7,1.8,2470.52,13.32,0.047,255.4
2020-06-25T00:22:03,42.805,6.029,-0.042,-0.004,-0.01,106.0,107.0,101.0,13.4,1505.3,328.3,-0.7,1.8,2470.46,13.32,0.042,264.6
2020-06-25T00:25:03,42.805,6.029,-0.039,-0.019,-0.044,106.0,107.0,102.0,13.4,1505.3,326.5,-0.7,1.8,2470.475,13.32,0.043,244.0
2020-06-25T00:28:03,42.805,6.029,-0.036,-0.015,-0.023,106.0,106.0,102.0,13.4,1505.3,325.1,-0.7,1.8,2470.47,13.32,0.039,247.4
2020-06-25T00:31:03,42.805,6.029,-0.018,-0.028,0.004,106.0,106.0,102.0,13.4,1505.3,325.5,-0.7,1.8,2470.432,13.33,0.033,212.7
2020-06-25T00:34:03,42.805,6.029,-0.029,-0.028,0.01,106.0,105.0,102.0,13.4,1505.3,325.5,-0.7,1.8,2470.423,13.32,0.04,226.0
2020-06-25T00:37:03,42.805,6.029,-0.037,-0.006,-0.015,104.0,106.0,103.0,13.3,1505.3,327.9,-0.7,1.9,2470.508,13.32,0.037,260.8
2020-06-25T00:40:03,42.805,6.029,-0.044,-0.013,-0.004,105.0,105.0,103.0,13.4,1505.3,325.7,-0.7,1.8,2470.452,13.32,0.045,253.5
2020-06-25T00:43:03,42.805,6.029,-0.018,-0.026,0.007,105.0,107.0,101.0,13.4,1505.3,328.2,-0.7,1.8,2470.491,13.32,0.031,214.7
2020-06-25T00:46:03,42.805,6.029,-0.038,-0.016,-0.014,105.0,104.0,101.0,13.4,1505.3,326.7,-0.7,1.8,2470.456,13.32,0.041,247.2
2020-06-25T00:49:03,42.805,6.029,-0.034,-0.002,-0.006,103.0,105.0,102.0,13.3,1505.3,328.3,-0.7,1.8,2470.416,13.32,0.034,266.6
2020-06-25T00:52:03,42.805,6.029,-0.056,-0.019,-0.047,105.0,106.0,102.0,13.3,1505.3,323.8,-0.7,1.9,2470.45,13.32,0.059,251.3
2020-06-25T00:55:03,42.805,6.029,-0.046,-0.014,-0.005,104.0,107.0,102.0,13.3,1505.3,326.4,-0.7,1.8,2470.467,13.32,0.048,253.1
2020-06-25T00:58:03,42.805,6.029,-0.057,-0.011,-0.025,106.0,107.0,102.0,13.3,1505.3,325.7,-0.7,1.8,2470.452,13.32,0.058,259.1
2020-06-25T01:04:03,42.805,6.029,-0.007,-0.031,-0.021,107.0,107.0,104.0,13.4,1505.3,326.6,-0.7,1.8,2470.473,13.31,0.031,192.7
2020-06-25T01:07:03,42.805,6.029,-0.037,-0.018,-0.01,106.0,106.0,103.0,13.4,1505.3,327.4,-0.7,1.8,2470.481,13.31,0.041,244.1
2020-06-25T01:10:03,42.805,6.029,-0.037,-0.028,-0.024,106.0,107.0,101.0,13.4,1505.3,325.1,-0.7,1.8,2470.474,13.32,0.046,232.9
2020-06-25T01:13:03,42.805,6.029,-0.022,-0.024,0.02,106.0,106.0,103.0,13.4,1505.3,327.4,-0.7,1.8,2470.436,13.32,0.032,222.5
2020-06-25T01:16:03,42.805,6.029,-0.023,-0.03,-0.01,106.0,106.0,102.0,13.3,1505.3,323.5,-0.7,1.8,2470.433,13.32,0.037,217.5
2020-06-25T01:19:03,42.805,6.029,-0.052,-0.02,-0.034,106.0,106.0,103.0,13.4,1505.3,327.5,-0.7,1.8,2470.431,13.32,0.055,249.0
2020-06-25T01:22:03,42.805,6.029,-0.013,-0.029,0.036,106.0,106.0,102.0,13.4,1505.3,327.4,-0.7,1.8,2470.438,13.32,0.031,204.1
2020-06-25T01:25:03,42.805,6.029,-0.021,-0.006,-0.008,106.0,106.0,103.0,13.4,1505.3,326.7,-0.7,1.8,2470.442,13.32,0.021,254.1
2020-06-25T01:28:03,42.805,6.029,-0.046,0.004,0.019,105.0,106.0,102.0,13.4,1505.3,328.5,-0.7,1.8,2470.462,13.32,0.046,275.0
2020-06-25T01:31:03,42.805,6.029,-0.021,-0.007,-0.01,105.0,107.0,102.0,13.3,1505.3,327.5,-0.7,1.8,2470.442,13.32,0.022,251.6
2020-06-25T01:34:03,42.805,6.029,-0.015,-0.044,-0.004,106.0,106.0,102.0,13.3,1505.3,326.8,-0.7,1.9,2470.43,13.32,0.046,198.8
2020-06-25T01:37:03,42.805,6.029,-0.05,-0.001,-0.018,105.0,108.0,103.0,13.4,1505.3,327.9,-0.7,1.8,2470.406,13.32,0.05,268.9
2020-06-25T01:40:03,42.805,6.029,-0.033,-0.02,0.014,106.0,107.0,102.0,13.4,1505.3,326.0,-0.7,1.8,2470.419,13.33,0.038,238.8
2020-06-25T01:43:03,42.805,6.029,-0.041,-0.01,-0.021,104.0,106.0,102.0,13.4,1505.3,325.6,-0.7,1.8,2470.387,13.32,0.042,256.3
2020-06-25T01:46:03,42.805,6.029,-0.063,-0.023,-0.044,104.0,107.0,102.0,13.4,1505.3,325.8,-0.7,1.8,2470.434,13.32,0.067,249.9
2020-06-25T01:49:03,42.805,6.029,-0.052,-0.015,-0.021,105.0,107.0,103.0,13.4,1505.3,323.9,-0.7,1.8,2470.356,13.32,0.054,253.9
2020-06-25T01:52:03,42.805,6.029,-0.059,-0.022,-0.02,105.0,107.0,102.0,13.4,1505.3,326.5,-0.7,1.8,2470.397,13.32,0.062,249.6
2020-06-25T01:55:03,42.805,6.029,-0.053,-0.012,-0.018,104.0,107.0,102.0,13.4,1505.3,327.1,-0.7,1.8,2470.422,13.32,0.054,257.2
2020-06-25T01:58:03,42.805,6.029,-0.031,-0.023,-0.015,106.0,107.0,102.0,13.3,1505.3,325.5,-0.6,1.8,2470.387,13.32,0.038,233.4
2020-06-25T02:04:03,42.805,6.029,-0.008,-0.002,0.057,105.0,106.0,103.0,13.4,1505.3,324.3,-0.7,1.8,2470.406,13.31,0.008,256.0
2020-06-25T02:07:03,42.805,6.029,-0.038,0.001,-0.017,106.0,107.0,104.0,13.3,1505.3,322.8,-0.7,1.8,2470.382,13.31,0.038,271.5
2020-06-25T02:10:03,42.805,6.029,-0.027,-0.03,-0.03,106.0,106.0,104.0,13.3,1505.3,323.5,-0.7,1.8,2470.356,13.32,0.04,222.0
2020-06-25T02:13:03,42.805,6.029,-0.048,-0.018,0.004,107.0,105.0,103.0,13.4,1505.3,326.8,-0.7,1.8,2470.384,13.32,0.051,249.4
2020-06-25T02:16:03,42.805,6.029,-0.046,-0.016,-0.013,107.0,108.0,103.0,13.4,1505.3,325.1,-0.7,1.8,2470.399,13.32,0.048,250.8
2020-06-25T02:19:03,42.805,6.029,-0.036,-0.002,0.002,105.0,107.0,103.0,13.4,1505.3,325.9,-0.7,1.9,2470.379,13.32,0.036,266.8
2020-06-25T02:22:03,42.805,6.029,-0.069,-0.031,-0.049,106.0,109.0,103.0,13.3,1505.3,326.5,-0.7,1.8,2470.387,13.32,0.075,245.8
2020-06-25T02:25:03,42.805,6.029,-0.04,-0.026,-0.034,106.0,107.0,102.0,13.3,1505.3,325.5,-0.7,1.8,2470.406,13.32,0.047,237.0
2020-06-25T02:28:03,42.805,6.029,-0.045,-0.019,-0.047,106.0,106.0,102.0,13.4,1505.3,323.8,-0.7,1.9,2470.394,13.32,0.048,247.1
2020-06-25T02:31:03,42.805,6.029,-0.023,-0.018,0.029,106.0,107.0,101.0,13.3,1505.3,324.6,-0.7,1.8,2470.423,13.32,0.029,232.0
2020-06-25T02:34:03,42.805,6.029,-0.03,0.003,-0.019,106.0,107.0,102.0,13.3,1505.3,326.1,-0.7,1.8,2470.381,13.32,0.03,275.7
2020-06-25T02:37:03,42.805,6.029,-0.024,-0.036,-0.041,106.0,108.0,104.0,13.4,1505.3,324.6,-0.7,1.8,2470.359,13.32,0.043,213.7
2020-06-25T02:40:03,42.805,6.029,-0.045,-0.015,-0.032,105.0,107.0,104.0,13.4,1505.3,327.9,-0.7,1.9,2470.354,13.32,0.047,251.6
2020-06-25T02:43:03,42.805,6.029,-0.019,-0.003,0.015,105.0,106.0,102.0,13.3,1505.3,325.4,-0.7,1.8,2470.421,13.32,0.019,261.0
2020-06-25T02:46:03,42.805,6.029,-0.032,-0.03,-0.017,105.0,108.0,103.0,13.4,1505.3,325.2,-0.7,1.8,2470.332,13.32,0.043,226.9
2020-06-25T02:49:03,42.805,6.029,-0.027,-0.021,-0.038,106.0,107.0,101.0,13.4,1505.3,323.5,-0.7,1.8,2470.404,13.32,0.034,232.1
2020-06-25T02:52:03,42.805,6.029,-0.026,-0.004,0.004,105.0,107.0,101.0,13.4,1505.3,327.1,-0.7,1.8,2470.361,13.32,0.026,261.3
2020-06-25T02:55:03,42.805,6.029,-0.038,-0.025,-0.022,105.0,105.0,102.0,13.4,1505.3,325.4,-0.7,1.8,2470.349,13.32,0.045,236.7
2020-06-25T02:58:03,42.805,6.029,-0.019,-0.013,-0.021,106.0,107.0,103.0,13.4,1505.3,324.7,-0.7,1.8,2470.254,13.32,0.023,235.6
2020-06-25T03:04:03,42.805,6.029,-0.054,-0.016,-0.014,106.0,106.0,105.0,13.4,1505.2,323.7,-0.7,1.8,2470.398,13.3,0.056,253.5
2020-06-25T03:07:03,42.805,6.029,-0.053,-0.018,-0.051,106.0,107.0,103.0,13.4,1505.3,326.8,-0.8,1.8,2470.323,13.31,0.055,251.2
2020-06-25T03:10:03,42.805,6.029,-0.059,-0.014,-0.009,105.0,107.0,101.0,13.4,1505.3,327.7,-0.7,1.8,2470.411,13.32,0.06,256.7
2020-06-25T03:13:03,42.805,6.029,-0.049,-0.042,-0.016,106.0,105.0,102.0,13.4,1505.3,326.9,-0.7,1.8,2470.356,13.32,0.064,229.4
2020-06-25T03:16:03,42.805,6.029,-0.021,-0.032,-0.017,105.0,107.0,103.0,13.4,1505.3,324.6,-0.7,1.8,2470.359,13.32,0.038,213.3
2020-06-25T03:19:03,42.805,6.029,-0.054,-0.027,-0.028,105.0,107.0,103.0,13.4,1505.3,324.1,-0.7,1.8,2470.36,13.32,0.06,243.4
2020-06-25T03:22:03,42.805,6.029,-0.026,-0.023,-0.005,106.0,106.0,103.0,13.3,1505.3,323.7,-0.7,1.8,2470.317,13.32,0.034,228.5
2020-06-25T03:25:03,42.805,6.029,0.006,-0.01,0.04,104.0,107.0,102.0,13.3,1505.3,324.6,-0.7,1.8,2470.338,13.32,0.011,149.0
2020-06-25T03:28:03,42.805,6.029,-0.014,-0.017,-0.009,106.0,106.0,103.0,13.4,1505.3,326.5,-0.7,1.8,2470.368,13.32,0.022,219.5
2020-06-25T03:31:03,42.805,6.029,-0.051,-0.007,-0.019,107.0,106.0,103.0,13.4,1505.3,326.9,-0.7,1.8,2470.334,13.32,0.051,262.2
2020-06-25T03:34:03,42.805,6.029,-0.036,-0.017,0.0,106.0,108.0,102.0,13.3,1505.3,326.1,-0.7,1.8,2470.369,13.32,0.039,244.7
2020-06-25T03:37:03,42.805,6.029,-0.026,-0.009,0.003,106.0,107.0,101.0,13.4,1505.3,327.3,-0.7,1.8,2470.351,13.32,0.027,250.9
2020-06-25T03:40:03,42.805,6.029,-0.025,-0.012,-0.031,106.0,108.0,102.0,13.4,1505.3,328.1,-0.7,1.8,2470.363,13.32,0.027,244.4
2020-06-25T03:43:03,42.805,6.029,-0.033,-0.003,-0.015,105.0,107.0,102.0,13.3,1505.3,327.9,-0.7,1.8,2470.332,13.32,0.033,264.8
2020-06-25T03:46:03,42.805,6.029,-0.045,-0.019,-0.031,105.0,106.0,103.0,13.4,1505.3,324.5,-0.7,1.8,2470.36,13.32,0.048,247.1
2020-06-25T03:49:03,42.805,6.029,-0.034,-0.01,-0.026,106.0,106.0,102.0,13.4,1505.3,322.8,-0.7,1.8,2470.29,13.32,0.035,253.6
2020-06-25T03:52:03,42.805,6.029,-0.031,-0.024,-0.032,105.0,108.0,103.0,13.3,1505.3,326.1,-0.7,1.8,2470.291,13.32,0.039,232.3
2020-06-25T03:55:03,42.805,6.029,-0.047,-0.011,-0.027,106.0,107.0,103.0,13.4,1505.3,327.0,-0.7,1.8,2470.344,13.32,0.048,256.8
2020-06-25T03:58:03,42.805,6.029,-0.057,-0.012,-0.045,106.0,107.0,103.0,13.4,1505.3,324.9,-0.7,1.9,2470.36,13.32,0.058,258.1
2020-06-25T04:04:03,42.805,6.029,-0.05,-0.006,-0.003,105.0,106.0,102.0,13.4,1505.3,323.9,-0.7,1.8,2470.326,13.31,0.05,263.2
2020-06-25T04:07:03,42.805,6.029,-0.008,-0.02,-0.024,105.0,106.0,103.0,13.3,1505.3,326.0,-0.7,1.8,2470.352,13.31,0.021,201.8
2020-06-25T04:10:03,42.805,6.029,-0.04,-0.025,-0.014,106.0,106.0,103.0,13.4,1505.3,326.4,-0.7,1.8,2470.319,13.32,0.047,238.0
2020-06-25T04:13:03,42.805,6.029,-0.049,-0.028,-0.027,104.0,105.0,103.0,13.4,1505.3,328.4,-0.7,1.8,2470.327,13.32,0.056,240.3
2020-06-25T04:16:03,42.805,6.029,-0.038,-0.026,-0.018,105.0,107.0,102.0,13.4,1505.3,325.3,-0.7,1.8,2470.355,13.32,0.046,235.6
2020-06-25T04:19:03,42.805,6.029,-0.022,-0.03,-0.013,105.0,107.0,102.0,13.4,1505.3,326.4,-0.7,1.8,2470.33,13.32,0.037,216.3
2020-06-25T04:22:03,42.805,6.029,-0.031,-0.028,-0.034,106.0,107.0,102.0,13.4,1505.3,323.7,-0.7,1.8,2470.307,13.32,0.041,227.9
2020-06-25T04:25:03,42.805,6.029,-0.042,-0.023,-0.02,106.0,106.0,103.0,13.3,1505.3,326.7,-0.7,1.8,2470.352,13.32,0.047,241.3
2020-06-25T04:28:03,42.805,6.029,-0.003,-0.026,0.008,105.0,106.0,102.0,13.4,1505.3,326.6,-0.7,1.8,2470.299,13.32,0.026,186.6
2020-06-25T04:31:03,42.805,6.029,-0.047,-0.032,-0.01,106.0,106.0,102.0,13.3,1505.3,327.0,-0.7,1.8,2470.333,13.32,0.056,235.8
2020-06-25T04:34:03,42.805,6.029,-0.055,-0.004,-0.037,106.0,107.0,102.0,13.4,1505.3,325.7,-0.7,1.8,2470.318,13.32,0.055,265.8
2020-06-25T04:37:03,42.805,6.029,-0.063,-0.012,-0.008,106.0,107.0,102.0,13.4,1505.3,324.0,-0.7,1.8,2470.334,13.32,0.064,259.2
2020-06-25T04:40:03,42.805,6.029,-0.025,-0.006,-0.001,106.0,106.0,102.0,13.4,1505.3,325.0,-0.7,1.8,2470.327,13.32,0.025,256.5
2020-06-25T04:43:03,42.805,6.029,-0.027,0.0,-0.01,106.0,107.0,102.0,13.3,1505.3,327.0,-0.7,1.8,2470.34,13.32,0.026,270.0
2020-06-25T04:46:03,42.805,6.029,-0.042,-0.001,-0.026,107.0,106.0,103.0,13.3,1505.3,326.0,-0.7,1.8,2470.308,13.32,0.042,268.6
2020-06-25T04:49:03,42.805,6.029,-0.03,0.0,0.008,106.0,108.0,103.0,13.3,1505.3,325.6,-0.7,1.8,2470.341,13.32,0.03,270.0
2020-06-25T04:52:03,42.805,6.029,-0.036,-0.027,-0.003,104.0,105.0,102.0,13.4,1505.3,323.3,-0.7,1.9,2470.291,13.33,0.045,233.1
2020-06-25T04:55:03,42.805,6.029,-0.044,-0.008,0.0,104.0,105.0,102.0,13.4,1505.3,326.0,-0.7,1.9,2470.285,13.32,0.044,259.7
2020-06-25T04:58:03,42.805,6.029,-0.062,-0.021,-0.025,103.0,105.0,101.0,13.4,1505.3,326.6,-0.7,1.8,2470.316,13.32,0.065,251.3
2020-06-25T05:04:03,42.805,6.029,-0.031,-0.026,-0.023,102.0,104.0,100.0,13.4,1505.2,324.5,-0.8,1.8,2470.327,13.3,0.04,230.0
2020-06-25T05:07:03,42.805,6.029,-0.059,0.009,-0.014,104.0,105.0,100.0,13.4,1505.3,325.8,-0.7,1.8,2470.357,13.31,0.059,278.7
2020-06-25T05:10:03,42.805,6.029,-0.042,0.001,-0.007,103.0,104.0,101.0,13.4,1505.3,326.9,-0.7,1.8,2470.33,13.32,0.042,271.4
2020-06-25T05:13:03,42.805,6.029,-0.05,-0.005,-0.044,102.0,104.0,101.0,13.4,1505.3,325.8,-0.7,1.8,2470.335,13.32,0.05,264.3
2020-06-25T05:16:03,42.805,6.029,-0.008,-0.011,-0.006,102.0,105.0,102.0,13.3,1505.3,324.9,-0.7,1.8,2470.384,13.32,0.013,216.0
2020-06-25T05:19:03,42.805,6.029,-0.038,-0.018,-0.054,103.0,104.0,101.0,13.4,1505.3,326.3,-0.7,1.8,2470.287,13.32,0.042,244.7
2020-06-25T05:22:03,42.805,6.029,-0.039,-0.024,0.002,104.0,104.0,101.0,13.4,1505.3,326.4,-0.7,1.8,2470.337,13.32,0.045,238.4
2020-06-25T05:25:03,42.805,6.029,-0.03,-0.011,-0.023,103.0,104.0,101.0,13.4,1505.3,326.3,-0.7,1.8,2470.309,13.32,0.031,249.9
2020-06-25T05:28:03,42.805,6.029,-0.041,-0.011,-0.004,103.0,105.0,100.0,13.4,1505.3,327.1,-0.7,1.8,2470.304,13.32,0.042,255.0
2020-06-25T05:31:03,42.805,6.029,-0.041,-0.017,-0.045,103.0,104.0,101.0,13.4,1505.3,326.9,-0.7,1.8,2470.328,13.32,0.044,247.5
2020-06-25T05:34:03,42.805,6.029,-0.024,-0.01,0.0,103.0,106.0,102.0,13.3,1505.3,326.5,-0.7,1.8,2470.313,13.32,0.026,247.4
2020-06-25T05:37:03,42.805,6.029,-0.039,-0.029,0.01,104.0,105.0,101.0,13.4,1505.3,325.2,-0.7,1.8,2470.337,13.32,0.048,233.4
2020-06-25T05:40:03,42.805,6.029,-0.034,-0.014,-0.005,104.0,106.0,100.0,13.3,1505.3,325.7,-0.7,1.9,2470.327,13.32,0.036,247.6
2020-06-25T05:43:03,42.805,6.029,-0.042,-0.019,0.004,105.0,105.0,102.0,13.4,1505.3,326.2,-0.7,1.8,2470.27,13.32,0.046,245.7
2020-06-25T05:46:03,42.805,6.029,-0.026,-0.02,-0.008,105.0,105.0,102.0,13.4,1505.3,326.8,-0.7,1.8,2470.304,13.32,0.032,232.4
2020-06-25T05:49:03,42.805,6.029,-0.016,-0.025,-0.011,105.0,105.0,102.0,13.3,1505.3,325.4,-0.7,1.8,2470.314,13.32,0.029,212.6
2020-06-25T05:52:03,42.805,6.029,-0.04,-0.011,-0.019,105.0,107.0,102.0,13.4,1505.3,325.2,-0.7,1.8,2470.327,13.32,0.041,254.6
2020-06-25T05:55:03,42.805,6.029,-0.043,-0.022,-0.012,105.0,106.0,102.0,13.4,1505.3,323.9,-0.7,1.8,2470.292,13.32,0.048,242.9
2020-06-25T05:58:03,42.805,6.029,-0.045,-0.025,-0.041,105.0,106.0,103.0,13.3,1505.3,324.3,-0.7,1.8,2470.282,13.32,0.051,240.9
2020-06-25T06:04:03,42.805,6.029,-0.047,-0.012,-0.025,106.0,106.0,103.0,13.4,1505.2,325.3,-0.7,1.8,2470.359,13.3,0.048,255.7
2020-06-25T06:07:03,42.805,6.029,-0.057,-0.032,-0.046,105.0,105.0,102.0,13.4,1505.3,326.5,-0.7,1.8,2470.31,13.31,0.065,240.7
2020-06-25T06:10:03,42.805,6.029,-0.018,-0.021,0.03,105.0,107.0,102.0,13.4,1505.3,326.5,-0.7,1.8,2470.356,13.31,0.027,220.6
2020-06-25T06:13:03,42.805,6.029,-0.042,-0.003,-0.007,106.0,107.0,102.0,13.4,1505.3,325.9,-0.7,1.8,2470.358,13.32,0.042,265.9
2020-06-25T06:16:03,42.805,6.029,-0.037,-0.012,0.0,105.0,106.0,102.0,13.4,1505.3,325.6,-0.7,1.8,2470.335,13.32,0.038,252.0
2020-06-25T06:19:03,42.805,6.029,-0.03,-0.011,-0.015,106.0,106.0,103.0,13.4,1505.3,326.7,-0.7,1.8,2470.334,13.32,0.031,249.9
2020-06-25T06:22:03,42.805,6.029,-0.045,-0.009,-0.004,105.0,106.0,103.0,13.4,1505.3,326.9,-0.7,1.8,2470.381,13.32,0.045,258.7
2020-06-25T06:25:03,42.805,6.029,-0.019,-0.01,0.006,108.0,107.0,102.0,13.3,1505.3,326.6,-0.7,1.8,2470.351,13.32,0.021,242.2
2020-06-25T06:28:03,42.805,6.029,-0.026,-0.028,0.0,105.0,107.0,104.0,13.3,1505.3,326.4,-0.7,1.8,2470.366,13.32,0.038,222.9
2020-06-25T06:31:03,42.805,6.029,-0.022,-0.023,-0.03,106.0,107.0,103.0,13.4,1505.3,323.3,-0.7,1.8,2470.329,13.32,0.031,223.7
2020-06-25T06:34:03,42.805,6.029,-0.018,-0.023,-0.024,107.0,106.0,102.0,13.4,1505.3,326.5,-0.7,1.8,2470.35,13.32,0.029,218.0
2020-06-25T06:37:03,42.805,6.029,-0.041,-0.021,-0.042,106.0,106.0,102.0,13.4,1505.3,325.3,-0.7,1.8,2470.341,13.32,0.046,242.9
2020-06-25T06:40:03,42.805,6.029,-0.048,-0.019,-0.022,105.0,106.0,103.0,13.3,1505.3,324.7,-0.7,1.8,2470.329,13.32,0.051,248.4
2020-06-25T06:43:03,42.805,6.029,-0.014,-0.015,0.003,105.0,106.0,103.0,13.4,1505.3,327.0,-0.7,1.8,2470.377,13.32,0.02,223.0
2020-06-25T06:46:03,42.805,6.029,-0.027,-0.006,-0.002,106.0,107.0,103.0,13.4,1505.3,326.4,-0.7,1.8,2470.312,13.32,0.027,257.5
2020-06-25T06:49:03,42.805,6.029,-0.025,-0.022,-0.003,106.0,108.0,102.0,13.4,1505.3,327.0,-0.7,1.8,2470.351,13.32,0.033,228.7
2020-06-25T06:52:03,42.805,6.029,-0.027,-0.008,-0.008,106.0,107.0,103.0,13.4,1505.3,326.8,-0.7,1.8,2470.361,13.32,0.028,253.5
2020-06-25T06:55:03,42.805,6.029,-0.011,-0.002,-0.016,106.0,107.0,103.0,13.3,1505.3,323.5,-0.7,1.8,2470.325,13.32,0.011,259.7
2020-06-25T06:58:03,42.805,6.029,-0.05,-0.018,0.0,105.0,106.0,104.0,13.3,1505.3,328.2,-0.7,1.8,2470.346,13.32,0.053,250.2
2020-06-25T07:04:03,42.805,6.029,-0.045,-0.008,-0.011,105.0,107.0,103.0,13.3,1505.2,325.9,-0.7,1.8,2470.36,13.3,0.045,259.9
2020-06-25T07:07:03,42.805,6.029,-0.03,-0.023,-0.025,105.0,107.0,104.0,13.4,1505.3,323.0,-0.7,1.8,2470.417,13.31,0.037,232.5
2020-06-25T07:10:03,42.805,6.029,-0.049,-0.003,0.003,104.0,108.0,103.0,13.4,1505.3,327.8,-0.7,1.9,2470.436,13.32,0.049,266.5
2020-06-25T07:13:03,42.805,6.029,-0.025,-0.005,-0.022,108.0,107.0,103.0,13.3,1505.3,325.5,-0.7,1.8,2470.366,13.32,0.025,258.7
2020-06-25T07:16:03,42.805,6.029,-0.038,-0.01,0.009,108.0,106.0,103.0,13.4,1505.3,327.1,-0.7,1.8,2470.356,13.32,0.039,255.3
2020-06-25T07:19:03,42.805,6.029,-0.051,-0.002,-0.015,107.0,107.0,103.0,13.4,1505.3,323.6,-0.7,1.8,2470.397,13.32,0.051,267.8
2020-06-25T07:22:03,42.805,6.029,-0.019,-0.018,-0.016,106.0,108.0,103.0,13.4,1505.3,325.6,-0.7,1.9,2470.338,13.32,0.026,226.5
2020-06-25T07:25:03,42.805,6.029,-0.045,-0.012,-0.006,106.0,106.0,103.0,13.4,1505.3,327.0,-0.7,1.8,2470.36,13.32,0.046,255.1
2020-06-25T07:28:03,42.805,6.029,-0.038,-0.035,-0.026,106.0,106.0,103.0,13.3,1505.3,325.9,-0.7,1.8,2470.384,13.32,0.051,227.4
2020-06-25T07:31:03,42.805,6.029,-0.032,-0.015,0.026,105.0,107.0,102.0,13.4,1505.3,324.7,-0.7,1.8,2470.409,13.32,0.035,244.9
2020-06-25T07:34:03,42.805,6.029,-0.038,-0.019,0.003,106.0,105.0,102.0,13.3,1505.3,323.4,-0.7,1.8,2470.371,13.32,0.042,243.4
2020-06-25T07:37:03,42.805,6.029,-0.029,-0.016,-0.024,104.0,106.0,102.0,13.4,1505.3,325.8,-0.7,1.8,2470.402,13.32,0.033,241.1
2020-06-25T07:40:03,42.805,6.029,-0.022,-0.019,-0.004,105.0,106.0,101.0,13.4,1505.3,323.3,-0.7,1.8,2470.383,13.32,0.029,229.2
2020-06-25T07:43:03,42.805,6.029,-0.035,0.006,-0.005,104.0,106.0,103.0,13.3,1505.3,325.0,-0.7,1.8,2470.358,13.32,0.035,279.7
2020-06-25T07:46:03,42.805,6.029,-0.038,-0.011,-0.043,104.0,105.0,102.0,13.4,1505.3,323.4,-0.7,1.8,2470.363,13.32,0.039,253.9
2020-06-25T07:49:03,42.805,6.029,-0.045,-0.015,-0.017,105.0,106.0,101.0,13.4,1505.3,326.6,-0.7,1.8,2470.426,13.32,0.047,251.6
2020-06-25T07:52:03,42.805,6.029,-0.018,-0.019,0.001,106.0,106.0,102.0,13.4,1505.3,328.1,-0.7,1.8,2470.403,13.32,0.026,223.5
2020-06-25T07:55:03,42.805,6.029,-0.044,-0.016,-0.014,102.0,106.0,103.0,13.4,1505.3,325.0,-0.7,1.9,2470.396,13.32,0.046,250.0
2020-06-25T07:58:03,42.805,6.029,-0.056,0.016,-0.007,104.0,106.0,102.0,13.4,1505.3,325.1,-0.7,1.9,2470.413,13.32,0.058,285.9
2020-06-25T08:04:03,42.805,6.029,-0.024,-0.03,0.0,105.0,105.0,101.0,13.4,1505.2,322.8,-0.8,1.9,2470.445,13.3,0.038,218.7
2020-06-25T08:07:03,42.805,6.029,-0.013,-0.017,-0.009,104.0,106.0,102.0,13.3,1505.3,323.3,-0.7,1.9,2470.417,13.31,0.021,217.4
2020-06-25T08:10:03,42.805,6.029,-0.062,-0.002,0.013,104.0,106.0,101.0,13.4,1505.3,326.7,-0.7,1.9,2470.416,13.32,0.062,268.2
2020-06-25T08:13:03,42.805,6.029,-0.014,-0.011,-0.007,104.0,106.0,102.0,13.4,1505.3,324.6,-0.7,1.8,2470.425,13.32,0.017,231.8
2020-06-25T08:16:03,42.805,6.029,-0.04,-0.012,-0.019,105.0,106.0,101.0,13.4,1505.3,323.2,-0.7,1.8,2470.438,13.32,0.041,253.3
2020-06-25T08:19:03,42.805,6.029,-0.07,-0.016,-0.005,105.0,106.0,102.0,13.4,1505.3,325.7,-0.7,1.8,2470.458,13.32,0.071,257.1
2020-06-25T08:22:03,42.805,6.029,-0.052,-0.02,-0.041,104.0,105.0,101.0,13.4,1505.3,326.0,-0.7,1.8,2470.43,13.32,0.055,249.0
2020-06-25T08:25:03,42.805,6.029,-0.058,-0.01,-0.043,105.0,104.0,101.0,13.4,1505.3,322.6,-0.7,1.8,2470.381,13.32,0.058,260.2
2020-06-25T08:28:03,42.805,6.029,-0.045,-0.011,-0.035,103.0,106.0,101.0,13.4,1505.3,326.3,-0.7,1.8,2470.381,13.32,0.046,256.3
2020-06-25T08:31:03,42.805,6.029,-0.013,-0.017,-0.03,103.0,105.0,102.0,13.4,1505.3,323.3,-0.7,1.8,2470.405,13.32,0.021,217.4
2020-06-25T08:34:03,42.805,6.029,-0.028,-0.01,-0.016,104.0,107.0,101.0,13.4,1505.3,327.5,-0.7,1.8,2470.412,13.32,0.029,250.4
2020-06-25T08:37:03,42.805,6.029,-0.06,-0.026,-0.044,105.0,107.0,101.0,13.4,1505.3,323.9,-0.7,1.8,2470.428,13.32,0.065,246.6
2020-06-25T08:40:03,42.805,6.029,-0.05,-0.01,-0.045,105.0,106.0,102.0,13.4,1505.3,324.1,-0.7,1.8,2470.403,13.32,0.05,258.7
2020-06-25T08:43:03,42.805,6.029,-0.06,-0.006,-0.036,104.0,106.0,102.0,13.4,1505.3,324.2,-0.7,1.8,2470.446,13.32,0.06,264.3
2020-06-25T08:46:03,42.805,6.029,-0.036,-0.006,-0.017,103.0,105.0,100.0,13.4,1505.3,327.9,-0.7,1.8,2470.408,13.32,0.036,260.5
2020-06-25T08:49:03,42.805,6.029,-0.054,-0.007,-0.015,106.0,105.0,101.0,13.4,1505.3,327.0,-0.7,1.8,2470.399,13.32,0.054,262.6
2020-06-25T08:52:03,42.805,6.029,-0.063,-0.018,-0.04,105.0,106.0,101.0,13.4,1505.3,323.0,-0.7,1.8,2470.41,13.32,0.065,254.1
2020-06-25T08:55:03,42.805,6.029,-0.066,-0.031,-0.049,104.0,105.0,102.0,13.4,1505.3,327.5,-0.7,1.8,2470.387,13.32,0.072,244.8
2020-06-25T08:58:03,42.805,6.029,-0.048,-0.004,0.0,103.0,104.0,102.0,13.4,1505.3,324.2,-0.7,1.8,2470.382,13.32,0.048,265.2
2020-06-25T09:04:03,42.805,6.029,-0.024,0.011,0.003,105.0,105.0,102.0,13.3,1505.2,326.9,-0.7,1.8,2470.425,13.3,0.026,294.6
2020-06-25T09:07:03,42.805,6.029,-0.047,-0.005,-0.011,105.0,105.0,102.0,13.4,1505.3,327.2,-0.7,1.9,2470.443,13.31,0.047,263.9
2020-06-25T09:10:03,42.805,6.029,-0.044,-0.01,-0.016,104.0,105.0,101.0,13.4,1505.3,325.6,-0.7,1.8,2470.457,13.31,0.045,257.2
2020-06-25T09:13:03,42.805,6.029,-0.038,-0.02,-0.028,104.0,104.0,101.0,13.3,1505.3,326.6,-0.7,1.8,2470.418,13.32,0.042,242.2
2020-06-25T09:16:03,42.805,6.029,-0.044,-0.014,-0.019,105.0,104.0,101.0,13.3,1505.3,325.9,-0.7,1.9,2470.427,13.32,0.046,252.4
2020-06-25T09:19:03,42.805,6.029,-0.039,-0.015,-0.032,105.0,105.0,101.0,13.3,1505.3,323.8,-0.7,1.8,2470.419,13.32,0.041,249.0
2020-06-25T09:22:03,42.805,6.029,-0.033,-0.016,-0.009,103.0,105.0,101.0,13.4,1505.3,324.5,-0.7,1.8,2470.39,13.32,0.036,244.1
2020-06-25T09:25:03,42.805,6.029,-0.046,-0.003,-0.044,104.0,105.0,102.0,13.3,1505.3,327.9,-0.7,1.8,2470.414,13.32,0.046,266.3
2020-06-25T09:28:03,42.805,6.029,-0.044,-0.008,-0.01,104.0,106.0,101.0,13.4,1505.3,323.2,-0.7,1.8,2470.414,13.32,0.044,259.7
2020-06-25T09:31:03,42.805,6.029,-0.031,-0.009,-0.016,104.0,106.0,101.0,13.4,1505.3,323.0,-0.7,1.8,2470.431,13.32,0.032,253.8
2020-06-25T09:34:03,42.805,6.029,-0.029,0.0,-0.006,104.0,105.0,102.0,13.4,1505.3,323.8,-0.7,1.8,2470.373,13.32,0.028,270.0
2020-06-25T09:37:03,42.805,6.029,-0.035,0.004,-0.023,104.0,106.0,102.0,13.4,1505.3,327.8,-0.7,1.8,2470.391,13.32,0.035,276.5
2020-06-25T09:40:03,42.805,6.029,-0.028,0.017,-0.016,104.0,105.0,102.0,13.3,1505.3,325.8,-0.7,1.8,2470.437,13.32,0.032,301.3
2020-06-25T09:43:03,42.805,6.029,-0.039,-0.014,-0.038,104.0,105.0,101.0,13.4,1505.3,323.7,-0.7,1.8,2470.391,13.32,0.041,250.3
2020-06-25T09:46:03,42.805,6.029,-0.038,-0.011,-0.008,104.0,105.0,101.0,13.3,1505.3,326.6,-0.7,1.8,2470.435,13.32,0.039,253.9
2020-06-25T09:49:03,42.805,6.029,-0.055,-0.024,-0.022,103.0,107.0,102.0,13.4,1505.3,326.5,-0.7,1.8,2470.413,13.32,0.06,246.4